Tracking 28895 objects as of 29-May-2024
HD Live streaming from Space Station
objects crossing your sky now

STARLINK-5226

Track STARLINK-5226 now!
10-day predictions
STARLINK-5226 is classified as:


NORAD ID: 54056
Int'l Code: 2022-136F
Perigee: 545.8 km
Apogee: 547.9 km
Inclination: 53.2 °
Period: 95.4 minutes
Semi major axis: 6917 km
RCS: Unknown
Launch date: October 20, 2022
Source: United States (US)
Launch site: AIR FORCE EASTERN TEST RANGE (AFETR)
Your satellite tracking list
Your tracking list is empty




NASA's NSSDC Master Catalog

Two Line Element Set (TLE):
1 54056U 22136F   24149.89907450 -.00001591  00000-0 -81893-4 0  9997
2 54056  53.2184  20.7278 0001487  80.9349 279.1811 15.08850467 89239
Source of the keplerian elements: AFSPC